Regional Weather Roundup
Issued by NWS Wakefield, VA

Home | Current Version | Previous Version | Graphics & Text | Print | Product List | Glossary On
Versions: 1 2 3 4 5 6 7 8 9 10 11 12 13 14 15 16 17 18 19 20 21 22 23 24 25 26 27 28 29 30 31 32 33 34 35 36 37 38 39 40 41 42 43 44 45 46 47 48 49 50
834
ASUS41 KAKQ 202315
RWRAKQ

REGIONAL WEATHER ROUNDUP
NATIONAL WEATHER SERVICE WAKEFIELD VA
700 PM EDT THU JUL 20 2017

Note: "fair" indicates few or no clouds below 12,000 feet with no
significant weather and/or obstructions to visibility. * = Denotes
station may not report precipitation (e.g., rain,snow,etc.),
thunder or fog.

VAZ042-051-052>054-056-210000-
NORTHERN VIRGINIA

CITY           SKY/WX    TMP DP  RH WIND       PRES   REMARKS
WASH NATIONAL  CLOUDY    95  67  39 SW10      29.90F HX  99
DULLES         CLOUDY    91  68  46 SW6       29.91F HX  95
FORT BELVOIR   MOSUNNY   91  74  57 S5        29.90F HX 101
QUANTICO       CLOUDY    91  80  70 S8        29.91S HX 109
FREDERICKSBRG* PTSUNNY   93  75  56 S5        29.90S HX 104
STAFFORD*      CLOUDY    91  73  56 CALM      29.95S HX  98
WARRENTON      CLOUDY    94  64  36 CALM      29.92S HX  96
CULPEPER*      CLOUDY    92  71  49 SW3       29.92F HX  99
MANASSAS*      CLOUDY    93  69  45 SW3       29.91F HX  98
LEESBURG*      MOSUNNY   93  73  52 SW3       29.93S HX 102
WINCHESTER     MOSUNNY   90  66  45 NW9       29.93F
FRONT ROYAL*   PTCLDY    91  68  46 SW6       29.93S HX  95
LURAY*         CLOUDY    90  70  51 SW3       29.95F HX  95
$$

VAZ048-049-060>072-079>083-210000-
CENTRAL AND SOUTH CENTRAL VIRGINIA

CITY           SKY/WX    TMP DP  RH WIND       PRES   REMARKS
RICHMOND       CLOUDY    93  69  45 S8        29.92S HX  98
CHESTERFIELD*  FAIR      91  73  55 SW3       29.93F HX  99
PETERSBURG*    CLOUDY    89  71  55 CALM      29.94S
HANOVER        CLOUDY    94  66  39 SW6       29.93S HX  97
TAPPAHANNOCK*  CLOUDY    90  51  25 E7        29.93S
QUINTON*       FAIR      91  73  55 S3        29.91S HX  99
CHARLOTTSVILLE CLOUDY    92  67  43 CALM      29.94S HX  95
GORDONSVILLE*  CLOUDY    93  66  40 CALM      29.93S HX  96
ORANGE*        CLOUDY    91  64  40 CALM      29.93R
LOUISA*        CLOUDY    93  64  38 SW5       29.93S HX  95
BUMPASS*       FAIR      91  73  55 S5        29.92S HX  99
FARMVILLE*     CLOUDY    93  59  31 S5        29.93S
CREWE*         FAIR      92  61  35 CALM      29.94F
FORT PICKETT*  FAIR     N/A N/A N/A W5        29.94F
CHASE CITY*    FAIR      92  69  46 CALM      29.96S HX  96
CLARKSVILLE*   FAIR      88  73  62 CALM      29.95S HX  96
SOUTH HILL*    CLOUDY    90  73  57 SW3       30.01S HX  98
LAWRENCEVILLE* FAIR      91  69  49 MISG      29.94S HX  95
EMPORIA*       MOSUNNY   86  72  62 SE3       29.96S
$$

VAZ088>098-210000-
SOUTHEAST VIRGINIA

CITY           SKY/WX    TMP DP  RH WIND       PRES   REMARKS
NORFOLK        CLOUDY    91  72  53 S9        29.93F HX  98
VIRGINIA BEACH PTSUNNY   87  74  64 S8        29.93F HX  95
NORFOLK NAVAL  CLOUDY    90  72  55 SW5       29.94F HX  97
WEST POINT*    CLOUDY    92  67  43 S3        29.93S HX  95
SALUDA*        FAIR      84  78  80 E6        29.93S HX  95
NEWPORT NEWS   CLOUDY    90  72  55 S12       29.93F HX  97
LANGLEY AFB    CLOUDY    90  74  58 S9        29.93F HX  99
FORT EUSTIS    CLOUDY    91  76  59 S6        29.91F HX 103
WILLIAMSBURG*  MOSUNNY   93  73  52 CALM      29.94S HX 102
HR EXEC AP*    NOT AVBL
FRANKLIN*      CLOUDY    88  72  58 S6        29.95S
US460-WAKEFLD  CLOUDY    89  74  60 S5        29.94F HX  98
$$

VAZ020-022-025-037-045-210000-
WEST CENTRAL AND SOUTHWEST VIRGINIA

CITY           SKY/WX    TMP DP  RH WIND       PRES   REMARKS
STAUNTON*      CLOUDY    88  68  51 S7        30.00S
WAYNESBORO*    PTCLDY    85  69  59 CALM      30.00F
HOT SPRINGS VA PTSUNNY   77  55  47 W10       30.18S
LYNCHBURG      CLOUDY    89  67  47 SW3       29.97F
DANVILLE       CLOUDY    90  74  59 CALM      29.96F HX  99
SOUTH BOSTON*  FAIR      91  69  49 SW3       29.95F HX  95
MARTINSVILLE   SUNNY     89  73  58 CALM      30.01S HX  96
ROANOKE        CLOUDY    91  65  41 W9        30.01S
BLACKSBURG     CLOUDY    86  63  45 W8        30.10S
DUBLIN*        CLOUDY    87  59  39 N7        30.09S
MARION*        SUNNY     83  64  53 W7        30.13F
HILLSVILLE*    SUNNY     85  50  29 NW9       30.10S
RICHLANDS*     FAIR      79  61  54 NW3       30.14S
WISE*          MOSUNNY   82  55  39 N6        30.15F
ABINGDON*      MOSUNNY   87  66  50 NW5       30.09F
$$

MDZ021>025-VAZ099-100-210000-
SOUTHERN MARYLAND AND THE DELMARVA PENINSULA

CITY           SKY/WX    TMP DP  RH WIND       PRES   REMARKS
PATUXENT RIVER CLOUDY    85  75  72 S9        29.92R
BAY BRIDGE APT SUNNY     91  75  59 S8        29.90S HX 102
LEONARDTOWN    CLOUDY   N/A N/A N/A SE3       29.94S
DOVER          SUNNY     91  80  70 S13       29.88S HX 109
GEORGETOWN     CLOUDY    90  75  61 SW8       29.92S HX 100
EASTON         SUNNY     91  73  55 SW9       29.94F HX 100
CAMBRIDGE      SUNNY     88  75  66 S6        29.92S HX  97
SALISBURY      SUNNY     88  73  62 SW8       29.92S HX  96
OCEAN CITY     CLOUDY    84  76  76 SW10      29.93R
WALLOPS ISLAND CLOUDY    83  74  74 SW14      29.94S
ACCOMACK*      CLOUDY    85  74  71 S10G16    29.94S
$$

NCZ012>017-030>032-210000-
NORTH CENTRAL AND EASTERN NORTH CAROLINA

CITY           SKY/WX    TMP DP  RH WIND       PRES   REMARKS
ROANOKE RAPIDS FAIR      88  72  58 S3        29.95S
RALEIGH        CLOUDY    93  68  43 S5        29.96F HX  97
ELIZABETH CITY CLOUDY    86  77  74 SE7       29.97S HX  97
AHOSKIE*         N/A     86  75  68 CALM      29.96S HX  95
EDENTON*       CLOUDY    89  74  59 S7        29.97F HX  98
CURRITUCK*     CLOUDY    88  73  60 CALM      29.97S HX  95
KILL DEVIL HLS CLOUDY    83  72  68 CALM      29.96F
MANTEO         CLOUDY    83  74  74 S9        29.98F
CAPE HATTERAS  SUNNY     83  74  74 SW6       29.99F
TARBORO*       NOT AVBL
GOLDSBORO      SUNNY     91  70  49 S3        29.95F HX  96
WASHINGTON     SUNNY     89  70  52 SW5       29.97S
GREENVILLE     SUNNY     90  72  55 SW3       29.98S HX  96
NEW BERN       SUNNY     86  74  67 S7        29.99S
WILMINGTON     SUNNY     86  73  65 S8        29.98S
$$

VAZ048-210000-
ELSEWHERE

CITY           SKY/WX    TMP DP  RH WIND       PRES   REMARKS
HARRISBURG PA  PTSUNNY   89  71  55 W10       29.89S HX  95
BALTIMORE      PTSUNNY   93  68  43 W8        29.89F HX  97
ANNAPOLIS      SUNNY     91  79  67 S6        29.88F HX 107
ANDREWS AFB    CLOUDY    92  71  50 SW9       29.90F HX  98
PHILADELPHIA   MOSUNNY   94  69  44 SW13      29.87F HX  99
HENDERSON NC   CLOUDY    88  66  48 W3        29.97S
GREENSBORO     CLOUDY    91  69  48 SE7       29.98F HX  96
ROCKY MOUNT    SUNNY     87  75  67 SE3       29.95F HX  96
$$

VAZ100-210000-
MARINE

STATION/POSITION TIME  TEMP    WIND        PRES    WAVE   SWELL
                       AIR SEA DIR/SP/G            HT/PER HT/PER
                 (UTC) (F)     (DEG/KT/KT) (MB)    (FT/S) (FT/S)
BRANDYWINE LGT   2248          220/ 13/ 14 1012.9F
CAPE MAY NJ      2248   83 78  180/  7/ 10 1012.2F
LEWES DE         2248   90 78  250/ 10/ 14 1012.6R
15NM E FENWICK I 2150   79 78  200/ 16/ 19 1013.5    3/ 7   2/ 7
OCEAN-CITY-INLET 2248   74 69  210/ 11/ 12 1013.8S
WACHAPREAGUE VA  2248   83 86  190/ 10/ 17 1013.9S
THOMAS POINT MD  2300   86 84  180/ 13/ 14   N/A
GOOSES REEF MD   2300   88 85  190/  8/ 10 1013.7    1/ 3
COVE POINT MD    2248   87     220/ 10/ 11 1013.7S
SOLOMONS ISLAND  2248   86 83  200/ 11/ 15   N/A
BISHOPS HEAD MD  2248   87     220/ 12/ 13 1013.2F
PINEY POINT MD   2248          190/ 12/ 14   N/A
POTOMAC MD       2300   83 85  210/ 12/ 14 1012.2    1/ 2
CAMBRIDGE MD     2248                      1014.0R
LEWISETTA VA     2248   83 88  180/  7/  9 1013.0F
RAPPAHANNOCK LGT 2248          150/ 13/ 15 1014.1F
STINGRAY PT      2300   85 86  190/ 14/ 16 1013.7    2/ 2
YORK RVR RNG VA  2248   88     200/  9/ 10 1013.8F
YORKTOWN VA      2248   91 83  210/  8/ 10 1013.1F
JAMESTOWN VA     2300      88  190/  6/ 10   N/A
DOMINION TERM VA 2248   86     190/  7/  9 1013.7F
KIPTOPEKE VA     2248      81  170/ 14/ 16   N/A
CHES BAY BRIDGE  2248   89 79  210/  4/  5 1013.6F
CAPE HENRY VA    2248   84     150/  8/ 11   N/A
WILLOUBY STN VA  2248   90     210/  9/ 10 1013.7F
S CRANEY ISL VA  2248   90     200/  7/ 10 1013.5F
CAPE HENRY BUOY  2230      74                N/A     2/12   2/12
1ST LANDING BUOY 2300   84 82              1013.3    1/ 3
64NM E OF VA BCH 2150   81 81  210/ 10/ 12 1015.8    2/ 7   2/ 7
DUCK PIER NC     2248   74 61  140/ 10/ 11 1014.5F
44100 DUCK FRF   2205      78                N/A     2/ 7   2/14
44056 DUCK FRF   2230      70                N/A     2/14   2/14
OREGON INLET NC  2248          170/  7/  9 1015.0F
HATTERAS NC      2248   83 82  220/  6/  9 1015.6F
DIAMOND SHLS NC  2150   83 87  200/  4/  8 1015.7    2/ 8   2/ 8
CAPE LOOKOUT NC  2300   82     220/  5/  7 1015.3F
$$




USA.gov is the U.S. government's official web portal to all federal, state and local government web resources and services.